Location: Leiter
(44.7178°N, 106.2687°W)
Time: 14:30:05
(UTC+00:00)

DX 1 - Pass Details

Date: 10 July 2022
Orbit: 617 x 629 km, 98.4° (Epoch: 08 August)

Event Time Altitude Azimuth Distance (km) Brightness Sun altitude
Rises 04:19:18 0° 14° (NNE) 2,925 ? -12.5°
Reaches altitude 10° 04:21:31 10° 16° (NNE) 2,011 ? -12.7°
Maximum altitude 04:25:54 81° 102° (ESE) 638 ? -13.2°
Drops below altitude 10° 04:30:14 10° 192° (SSW) 1,987 ? -13.7°
Enters shadow 04:30:24 - 192° (SSW) 2,056 ? -13.7°
